Location: Gälforsberget
(66.6500°N, 22.4167°E)
Time: 10:06:40
(UTC+00:00)

Cosmos 407 Rocket - Pass Details

Date: 11 April 2026
Orbit: 740 x 781 km, 74.0° (Epoch: 19 May)

Event Time Altitude Azimuth Distance (km) Brightness Sun altitude
Rises 21:43:43 0° 320° (NW) 3,233 7.9 -14.3°
Reaches altitude 10° 21:46:08 10° 316° (NW) 2,298 6.9 -14.3°
Maximum altitude 21:51:13 56° 240° (WSW) 895 3.7 -14.4°
Enters shadow 21:54:20 23° 170° (S) 1,574 4.5 -14.5°
